Terminal Aerodrome Forecast
Issued by NWS Louisville, KY

Home | Current Version | Previous Version | Text Only | Print | Product List | Glossary On
Versions: 1 2 3 4 5 6 7 8 9 10 11 12 13 14 15
000
FTUS43 KLMK 282100 AAA
TAFLEX
TAF AMD
KLEX 282118Z 2821/2918 24005KT P6SM VCTS SCT030CB SCT250
      TEMPO 2821/2823 VRB10G20KT 2SM TSRA BKN025CB
     FM290300 VRB03KT P6SM SCT040
     FM290700 00000KT 4SM BR SCT250
     FM291400 29004KT P6SM SCT040 SCT250=

USA.gov is the U.S. government's official web portal to all federal, state and local government web resources and services.